View from above orbital plane
|
View from above satellite
|
Ground track
|
The orbit data is extracted from the following two-line orbital elements,
1 23404U 94077A 21100.81648384 .00000339 00000-0 20465-3 0 9991
2 23404 71.0135 255.5561 0016196 197.9912 162.0639 14.13547731360969
Epoch (UTC): | 10 April 2021 19:35:44 |
Eccentricity: | 0.0016196 |
inclination: | 71.0135° |
perigee height: | 835 km |
apogee height: | 859 km |
right ascension of ascending node: | 255.5561° |
argument of perigee: | 197.9912° |
revolutions per day: | 14.13547731 |
mean anomaly at epoch: | 162.0639° |
orbit number at epoch: | 36096 |
The dashed part of the orbit path shows where the satellite is in the earth's shadow,
|
|